Starlink 3329

operational
NORAD ID: 50827 Int'l Des: 2022-001 Owner: SPXS Country: US Constellation: starlink
LEOCIRCULAR

Starlink 3329について

説明を読み込み中...

リアルタイム位置

3D地球を読み込み中...

次回通過

高度履歴

Altitude vs Time

uPlot chart will show altitude changes over time

軌道要素

1 50827U 22001AA 25347.57959563 .00000702 00000-0 62174-4 0 9990
2 50827 53.2168 195.6821 0001473 88.6604 271.4557 15.08838735217401
Epoch: Dec 13, 2025 • Age: 17 hours

現在のステータス

高度 554.6 km
速度 7.58 km/s
衛星直下点 -41.97°S, 39.96°W
打ち上げ日 Jan 6, 2022
運用期間 3.9 years
タイプ internet

技術仕様

分類 Payload
質量 297.00 kg
乾燥質量 275.00 kg
総質量 297.00 kg
長さ 0.20 m
直径 2.80 m
スパン 9.00 m
形状 Box + pan
製造者 SPXS
バスタイプ Starlink
フェーズステータス In Orbit
所有者/国 SPXS/US

大規模コンステレーション

Loading constellations...